Dubrovnik, Croatia

5:10 PM CEST on May 23, 2018 (GMT +0200)
Cilipi

Weather History for LDDU - December, 2017

Change the Weather History Date:

Thursday, December 21, 2017

  Actual Average (WUND) Record (WUND)
Temperature  
Mean Temperature 39 °F -  
Max Temperature 45 °F - - (-1)
Min Temperature 33 °F - - (-1)
Degree Days  
Heating Degree Days 26    
Moisture  
Dew Point 13 °F    
Average Humidity 33    
Maximum Humidity 41    
Minimum Humidity 18    
Precipitation  
Precipitation 0.00 in - - ()
Sea Level Pressure  
Sea Level Pressure 30.34 in    
Wind  
Wind Speed 25 mph ()    
Max Wind Speed 34 mph    
Max Gust Speed 46 mph    
Visibility 19.0 miles    
Events      
Averages and records for this station are not official NWS values.
T = Trace of Precipitation, MM = Missing Value Source: Averaged Metar Reports

Daily Weather History Graph

Daily Weather History Graph

Search for Another Location

Airport or City:

Astronomy

Dec. 21, 2017 Rise Set
Actual Time 7:13 AM CET 4:16 PM CET
Civil Twilight 6:41 AM CET 4:48 PM CET
Nautical Twilight 6:05 AM CET 5:24 PM CET
Astronomical Twilight 5:31 AM CET 5:58 PM CET
Moon 9:17 AM CET (12/21) 7:16 PM CET (12/21)
Length of Visible Light 10h 07m
Length of Day
9h 03m
Waxing Crescent, 9% of the Moon is Illuminated
Dec 21
Waxing Crescent
Dec 26
First Quarter
Jan 2
Full
Jan 8
Last Quarter
Jan 17
New

Hourly Weather History & Observations

Time (CET) Temp. Windchill Dew Point Humidity Pressure Visibility Wind Dir Wind Speed Gust Speed Precip Events Conditions
12:00 AM 33.8 °F 21.3 °F 12.2 °F 41% 30.36 in - NNE 24.2 mph - N/A   Clear
12:30 AM 33.8 °F 21.0 °F 12.2 °F 41% 30.36 in - NNE 25.3 mph - N/A   Clear
1:00 AM 33 °F - 12 °F 28% 30.42 in 19 mi NNE 26.8 mph - -  
1:00 AM 33.8 °F 20.8 °F 12.2 °F 41% 30.36 in - NNE 26.5 mph 38.0 mph N/A   Clear
1:30 AM 33.8 °F 20.8 °F 12.2 °F 41% 30.36 in - NNE 26.5 mph - N/A   Clear
2:00 AM 33.8 °F 20.5 °F 12.2 °F 41% 30.36 in - NNE 27.6 mph 39.1 mph N/A   Clear
2:30 AM 33.8 °F 20.5 °F 12.2 °F 41% 30.39 in - NNE 27.6 mph 39.1 mph N/A   Clear
3:00 AM 33.8 °F 20.3 °F 12.2 °F 41% 30.36 in - NNE 28.8 mph 40.3 mph N/A   Clear
3:30 AM 33.8 °F 20.1 °F 12.2 °F 41% 30.36 in - NNE 29.9 mph - N/A   Clear
4:00 AM 33 °F - 11 °F 26% 30.40 in 19 mi NNE 26.8 mph - -  
4:00 AM 33.8 °F 20.8 °F 10.4 °F 38% 30.36 in - NNE 26.5 mph - N/A   Clear
4:30 AM 33.8 °F 20.3 °F 10.4 °F 38% 30.36 in - NNE 28.8 mph 41.4 mph N/A   Clear
5:00 AM 33.8 °F 20.5 °F 10.4 °F 38% 30.36 in - NNE 27.6 mph - N/A   Clear
5:30 AM 33.8 °F 19.6 °F 10.4 °F 38% 30.36 in - NNE 32.2 mph 43.7 mph N/A   Clear
6:00 AM 35.6 °F 22.1 °F 10.4 °F 35% 30.33 in - NNE 32.2 mph 46.0 mph N/A   Clear
6:30 AM 35.6 °F 21.9 °F 10.4 °F 35% 30.33 in - NNE 33.4 mph 44.9 mph N/A   Clear
7:00 AM 35 °F - 11 °F 23% 30.37 in 19 mi NNE 31.3 mph - -  
7:00 AM 35.6 °F 22.3 °F 10.4 °F 35% 30.33 in - NNE 31.1 mph 43.7 mph N/A   Clear
7:30 AM 35.6 °F 22.5 °F 10.4 °F 35% 30.33 in - NNE 29.9 mph 44.9 mph N/A   Clear
8:00 AM 35.6 °F 23.2 °F 10.4 °F 35% 30.33 in - North 26.5 mph 38.0 mph N/A   Clear
8:30 AM 37.4 °F 24.6 °F 10.4 °F 33% 30.36 in - NNE 32.2 mph 43.7 mph N/A   Clear
9:00 AM 37.4 °F 25.0 °F 10.4 °F 33% 30.36 in - NNE 29.9 mph 43.7 mph N/A   Clear
9:30 AM 39.2 °F 27.4 °F 10.4 °F 31% 30.36 in - NNE 29.9 mph 43.7 mph N/A   Clear
10:00 AM 39 °F - 13 °F 20% 30.40 in 31 mi NNE 33.6 mph - -  
10:00 AM 39.2 °F 26.8 °F 12.2 °F 33% 30.36 in - NNE 33.4 mph - N/A   Clear
10:30 AM 41.0 °F 30.5 °F 12.2 °F 31% 30.36 in - NNE 26.5 mph - N/A   Clear
11:00 AM 42.8 °F 33.8 °F 14.0 °F 31% 30.36 in - NNE 21.9 mph - N/A   Clear
11:30 AM 42.8 °F 33.1 °F 14.0 °F 31% 30.36 in - NNE 25.3 mph 36.8 mph N/A   Clear
12:00 PM 42.8 °F 34.0 °F 15.8 °F 34% 30.36 in - NE 20.7 mph - N/A   Clear
12:30 PM 44.6 °F 36.1 °F 14.0 °F 29% 30.36 in - NNE 21.9 mph - N/A   Clear
1:00 PM 44 °F - 15 °F 19% 30.38 in 31 mi NE 20.1 mph - -  
1:30 PM 44.6 °F 36.1 °F 17.6 °F 34% 30.30 in - NE 21.9 mph 33.4 mph N/A   Clear
2:00 PM 44.6 °F 35.9 °F 17.6 °F 34% 30.30 in - NNE 23.0 mph - N/A   Clear
2:30 PM 44.6 °F 35.1 °F 17.6 °F 34% 30.30 in - NNE 27.6 mph 39.1 mph N/A   Clear
3:00 PM 44.6 °F 35.3 °F 15.8 °F 31% 30.30 in - NNE 26.5 mph - N/A   Clear
3:30 PM 44.6 °F 35.9 °F 14.0 °F 29% 30.30 in - NE 23.0 mph 34.5 mph N/A   Clear
4:00 PM 43 °F - 14 °F 18% 30.34 in 19 mi NE 17.9 mph - -  
4:30 PM 42.8 °F 32.7 °F 14.0 °F 31% 30.30 in - NNE 27.6 mph - N/A   Clear
5:00 PM 42.8 °F 33.8 °F 14.0 °F 31% 30.33 in - NNE 21.9 mph 33.4 mph N/A   Clear
5:30 PM 41.0 °F 30.7 °F 14.0 °F 33% 30.33 in - NE 25.3 mph - N/A   Clear
6:00 PM 41.0 °F 30.0 °F 14.0 °F 33% 30.30 in - NE 28.8 mph - N/A   Clear
6:30 PM 41.0 °F 30.7 °F 14.0 °F 33% 30.30 in - NNE 25.3 mph - N/A   Clear
7:00 PM 40 °F - 14 °F 21% 30.35 in 19 mi NNE 24.6 mph - -  
7:00 PM 41.0 °F 30.9 °F 14.0 °F 33% 30.33 in - NNE 24.2 mph - N/A   Clear
7:30 PM 41.0 °F 31.4 °F 14.0 °F 33% 30.33 in - NNE 21.9 mph 33.4 mph N/A   Clear
8:00 PM 41.0 °F 31.1 °F 14.0 °F 33% 30.33 in - NNE 23.0 mph - N/A   Clear
8:30 PM 39.2 °F 28.7 °F 14.0 °F 36% 30.30 in - NNE 23.0 mph - N/A   Clear
9:00 PM 39.2 °F 28.7 °F 14.0 °F 36% 30.33 in - NNE 23.0 mph 38.0 mph N/A   Clear
9:30 PM 39.2 °F 28.0 °F 14.0 °F 36% 30.30 in - NNE 26.5 mph - N/A   Clear
10:00 PM 39 °F - 14 °F 22% 30.35 in 19 mi NNE 24.6 mph - -  
10:00 PM 39.2 °F 28.5 °F 14.0 °F 36% 30.30 in - NNE 24.2 mph - N/A   Clear
10:30 PM 39.2 °F 28.7 °F 12.2 °F 33% 30.30 in - NNE 23.0 mph - N/A   Clear
11:00 PM 39.2 °F 29.0 °F 12.2 °F 33% 30.30 in - NNE 21.9 mph - N/A   Clear
11:30 PM 39.2 °F 29.3 °F 12.2 °F 33% 30.30 in - NNE 20.7 mph - N/A   Clear